• In France
  • List of Countries
  • For 7 days
  • Water Temperature
  • Satellite Maps
  • Weather Map
  • Weather Widgets
  • user-avatar
    Login

    Hourly Weather Brusyanaya

    Today, 24 September, Monday

    Time Temperature Precipitation Wind Pressure Humidity
    00:00 +10°C° 0.7 mm 3 mps 744 mmHg 88%
    01:00 +9°C° 0 mm 3 mps 745 mmHg 89%
    02:00 +9°C° 0 mm 3 mps 745 mmHg 90%
    03:00 +8°C° 0 mm 2 mps 744 mmHg 94%
    04:00 +8°C° 0 mm 2 mps 745 mmHg 94%
    05:00 +7°C° 0 mm 2 mps 745 mmHg 95%
    06:00 +7°C° 0 mm 2 mps 745 mmHg 95%
    07:00 +8°C° 0 mm 2 mps 745 mmHg 90%
    08:00 +9°C° 0 mm 2 mps 745 mmHg 84%
    09:00 +12°C° 0 mm 2 mps 746 mmHg 79%
    10:00 +12°C° 0 mm 3 mps 746 mmHg 72%
    11:00 +13°C° 0 mm 3 mps 746 mmHg 65%
    12:00 +16°C° 0 mm 3 mps 746 mmHg 58%
    13:00 +15°C° 0 mm 4 mps 745 mmHg 56%
    14:00 +15°C° 0 mm 4 mps 745 mmHg 55%
    15:00 +15°C° 0 mm 4 mps 744 mmHg 53%
    16:00 +14°C° 0.1 mm 4 mps 744 mmHg 58%
    17:00 +13°C° 0.1 mm 3 mps 744 mmHg 63%
    18:00 +12°C° 0.1 mm 3 mps 743 mmHg 68%
    19:00 +12°C° 0.4 mm 4 mps 743 mmHg 69%
    20:00 +12°C° 0.4 mm 5 mps 742 mmHg 70%
    21:00 +11°C° 0.4 mm 6 mps 742 mmHg 70%
    22:00 +11°C° 1.1 mm 7 mps 741 mmHg 74%
    23:00 +10°C° 1.1 mm 7 mps 740 mmHg 78%

    Tomorrow, 25 September, Tuesday

    Time Temperature Precipitation Wind Pressure Humidity
    00:00 +10°C° 1.1 mm 8 mps 739 mmHg 82%
    01:00 +10°C° 0.3 mm 8 mps 739 mmHg 82%
    02:00 +10°C° 0.3 mm 7 mps 738 mmHg 82%
    03:00 +10°C° 0.3 mm 7 mps 738 mmHg 82%
    04:00 +10°C° 0.6 mm 7 mps 738 mmHg 84%
    05:00 +10°C° 0.6 mm 6 mps 737 mmHg 85%
    06:00 +9°C° 0.6 mm 5 mps 737 mmHg 87%
    07:00 +9°C° 0.5 mm 5 mps 737 mmHg 85%
    08:00 +9°C° 0.5 mm 5 mps 737 mmHg 84%
    09:00 +9°C° 0.5 mm 5 mps 738 mmHg 82%
    10:00 +9°C° 0 mm 6 mps 738 mmHg 79%
    11:00 +9°C° 0 mm 6 mps 738 mmHg 76%
    12:00 +10°C° 0 mm 6 mps 739 mmHg 73%
    13:00 +10°C° 0 mm 6 mps 739 mmHg 72%
    14:00 +10°C° 0 mm 6 mps 739 mmHg 71%
    15:00 +10°C° 0 mm 6 mps 740 mmHg 69%
    16:00 +9°C° 0 mm 6 mps 740 mmHg 71%
    17:00 +9°C° 0 mm 6 mps 740 mmHg 72%
    18:00 +9°C° 0 mm 5 mps 741 mmHg 73%
    19:00 +8°C° 0 mm 6 mps 741 mmHg 74%
    20:00 +7°C° 0 mm 6 mps 742 mmHg 76%
    21:00 +7°C° 0 mm 6 mps 742 mmHg 77%
    22:00 +7°C° 0 mm 6 mps 743 mmHg 77%
    23:00 +7°C° 0 mm 6 mps 743 mmHg 78%

    Day after tomorrow, 26 September, Wednesday

    Time Temperature Precipitation Wind Pressure Humidity
    00:00 +5°C° 0 mm 6 mps 743 mmHg 78%
    01:00 +5°C° 0.1 mm 6 mps 744 mmHg 79%
    02:00 +5°C° 0.1 mm 6 mps 745 mmHg 79%
    03:00 +5°C° 0.1 mm 6 mps 745 mmHg 80%
    04:00 +5°C° 0.3 mm 6 mps 746 mmHg 80%
    05:00 +4°C° 0.3 mm 6 mps 747 mmHg 81%
    06:00 +4°C° 0.3 mm 6 mps 747 mmHg 82%
    07:00 +4°C° 0.1 mm 6 mps 748 mmHg 80%
    08:00 +4°C° 0.1 mm 6 mps 749 mmHg 78%
    09:00 +4°C° 0.1 mm 6 mps 750 mmHg 75%
    10:00 +5°C° 0 mm 6 mps 750 mmHg 72%
    11:00 +6°C° 0 mm 5 mps 751 mmHg 69%
    12:00 +7°C° 0 mm 5 mps 751 mmHg 65%
    13:00 +7°C° 0 mm 5 mps 752 mmHg 61%
    14:00 +8°C° 0 mm 5 mps 752 mmHg 57%
    15:00 +9°C° 0 mm 5 mps 752 mmHg 53%
    16:00 +8°C° 0 mm 4 mps 752 mmHg 55%
    17:00 +8°C° 0 mm 3 mps 752 mmHg 58%
    18:00 +7°C° 0 mm 3 mps 752 mmHg 60%
    19:00 +5°C° 0 mm 3 mps 752 mmHg 62%
    20:00 +4°C° 0 mm 3 mps 752 mmHg 64%
    21:00 +4°C° 0 mm 3 mps 752 mmHg 66%
    22:00 +3°C° 0 mm 3 mps 752 mmHg 67%
    23:00 +3°C° 0 mm 3 mps 752 mmHg 68%

    27 September, Thursday

    Time Temperature Precipitation Wind Pressure Humidity
    00:00 +3°C° 0 mm 4 mps 751 mmHg 69%
    01:00 +3°C° 0 mm 4 mps 751 mmHg 68%
    02:00 +2°C° 0 mm 5 mps 750 mmHg 67%
    03:00 +2°C° 0 mm 5 mps 750 mmHg 66%
    04:00 +3°C° 0 mm 6 mps 749 mmHg 66%
    05:00 +3°C° 0 mm 6 mps 748 mmHg 66%
    06:00 +4°C° 0 mm 7 mps 747 mmHg 67%
    07:00 +4°C° 0.6 mm 7 mps 746 mmHg 70%
    08:00 +4°C° 0.6 mm 8 mps 746 mmHg 73%
    09:00 +3°C° 0.6 mm 9 mps 745 mmHg 76%
    10:00 +3°C° 1.3 mm 9 mps 744 mmHg 78%
    11:00 +3°C° 1.3 mm 9 mps 744 mmHg 80%
    12:00 +3°C° 1.3 mm 9 mps 743 mmHg 82%
    13:00 +5°C° 0.6 mm 8 mps 743 mmHg 83%
    14:00 +5°C° 0.6 mm 8 mps 742 mmHg 84%
    15:00 +6°C° 0.6 mm 7 mps 742 mmHg 84%
    16:00 +7°C° 0.2 mm 6 mps 742 mmHg 84%
    17:00 +7°C° 0.2 mm 6 mps 742 mmHg 83%
    18:00 +7°C° 0.2 mm 5 mps 743 mmHg 83%
    19:00 +7°C° 0.1 mm 5 mps 743 mmHg 85%
    20:00 +7°C° 0.1 mm 5 mps 743 mmHg 87%
    21:00 +6°C° 0.1 mm 5 mps 743 mmHg 89%
    22:00 +6°C° 0.3 mm 5 mps 743 mmHg 90%
    23:00 +7°C° 0.3 mm 5 mps 743 mmHg 91%

    28 September, Friday

    Time Temperature Precipitation Wind Pressure Humidity
    00:00 +7°C° 0.3 mm 5 mps 742 mmHg 91%
    01:00 +6°C° 0.1 mm 5 mps 743 mmHg 91%
    02:00 +6°C° 0.1 mm 4 mps 743 mmHg 91%
    03:00 +6°C° 0.1 mm 4 mps 743 mmHg 91%
    04:00 +5°C° 0 mm 4 mps 743 mmHg 91%
    05:00 +5°C° 0 mm 4 mps 744 mmHg 90%
    06:00 +4°C° 0 mm 4 mps 744 mmHg 90%
    07:00 +5°C° 0 mm 4 mps 745 mmHg 85%
    08:00 +6°C° 0 mm 5 mps 745 mmHg 79%
    09:00 +7°C° 0 mm 5 mps 745 mmHg 74%
    10:00 +9°C° 0 mm 5 mps 745 mmHg 67%
    11:00 +10°C° 0 mm 5 mps 745 mmHg 60%
    12:00 +12°C° 0 mm 5 mps 745 mmHg 53%
    13:00 +12°C° 0.1 mm 5 mps 744 mmHg 58%
    14:00 +12°C° 0.1 mm 5 mps 744 mmHg 62%
    15:00 +12°C° 0.1 mm 4 mps 743 mmHg 67%
    16:00 +12°C° 0.1 mm 5 mps 743 mmHg 71%
    17:00 +11°C° 0.1 mm 7 mps 742 mmHg 76%
    18:00 +12°C° 0.1 mm 8 mps 741 mmHg 80%
    19:00 +12°C° 0.1 mm 8 mps 741 mmHg 81%
    20:00 +12°C° 0.1 mm 8 mps 741 mmHg 81%
    21:00 +12°C° 0.1 mm 8 mps 740 mmHg 81%
    22:00 +12°C° 0.1 mm 8 mps 740 mmHg 82%
    23:00 +12°C° 0.1 mm 8 mps 740 mmHg 83%

    29 September, Saturday

    Time Temperature Precipitation Wind Pressure Humidity
    00:00 +12°C° 0.1 mm 8 mps 740 mmHg 84%
    01:00 +12°C° 0.3 mm 7 mps 740 mmHg 85%
    02:00 +12°C° 0.3 mm 7 mps 740 mmHg 85%
    03:00 +13°C° 0.3 mm 6 mps 740 mmHg 86%
    04:00 +11°C° 0.2 mm 6 mps 741 mmHg 87%
    05:00 +10°C° 0.2 mm 5 mps 742 mmHg 88%
    06:00 +9°C° 0.2 mm 5 mps 742 mmHg 88%
    07:00 +10°C° 0.1 mm 4 mps 743 mmHg 87%
    08:00 +8°C° 0.1 mm 4 mps 744 mmHg 85%
    09:00 +7°C° 0.1 mm 4 mps 745 mmHg 83%
    10:00 +7°C° 0.1 mm 4 mps 746 mmHg 78%
    11:00 +8°C° 0.1 mm 3 mps 746 mmHg 73%
    12:00 +9°C° 0.1 mm 3 mps 747 mmHg 68%
    13:00 +9°C° 0 mm 3 mps 748 mmHg 64%
    14:00 +10°C° 0 mm 3 mps 748 mmHg 59%
    15:00 +10°C° 0 mm 3 mps 748 mmHg 55%
    16:00 +9°C° 0 mm 3 mps 749 mmHg 57%
    17:00 +9°C° 0 mm 2 mps 749 mmHg 58%
    18:00 +8°C° 0 mm 2 mps 749 mmHg 60%
    19:00 +8°C° 0 mm 3 mps 750 mmHg 59%
    20:00 +7°C° 0 mm 3 mps 750 mmHg 58%
    21:00 +7°C° 0 mm 3 mps 751 mmHg 57%
    22:00 +5°C° 0 mm 3 mps 751 mmHg 58%
    23:00 +5°C° 0 mm 3 mps 752 mmHg 59%
    Show more